Regional Weather Roundup
Issued by NWS

Home | Current Version | Previous Version | Text Only | Print | Product List | Glossary Off
Versions: 1 2 3 4 5 6 7 8 9 10 11 12 13 14 15 16 17 18 19 20 21 22 23 24 25 26 27 28 29 30 31 32 33 34 35 36 37 38 39 40 41 42 43 44 45 46 47 48 49 50

027
ASUS43 KMPX 211001
RWRMN
WEATHER ROUNDUP FOR MINNESOTA
NATIONAL WEATHER SERVICE TWIN CITIES/CHANHASSEN MN
400 AM CST TUE FEB 21 2017


NOTE: "FAIR" INDICATES FEW OR NO CLOUDS BELOW 12,000 FEET WITH NO
SIGNIFICANT WEATHER AND/OR OBSTRUCTIONS TO VISIBILITY. N/A MEANS
CURRENT SKY AND/OR WEATHER CONDITIONS ARE NOT AVAILABLE.

MNZ060>063-068>070-211100-
   Twin Cities Metro

CITY           SKY/WX    TMP DP  RH WIND       PRES   REMARKS
TWIN CITIES    PTCLDY    36  33  89 SW5       29.88S FOG
ST PAUL        PTCLDY    34  34 100 S3        29.89S FOG
CRYSTAL        PTCLDY   N/A N/A N/A CALM      29.86R FOG
BLAINE         CLEAR     36  36 100 SW3       29.87R FOG
LAKEVILLE      CLEAR     34  34 100 CALM      29.88S FOG
EDEN PRAIRIE   FOG       33  32  96 SW5       29.87R VSB 1/2 WCI  29
SOUTH ST PAUL  PTCLDY    35  35  99 CALM      29.89R FOG
LAKE ELMO      FAIR      36  34  93 CALM      29.88S
$$
MNZ001>005-007-008-013>017-022>024-027-028-211100-
   Northwest Minnesota

CITY           SKY/WX    TMP DP  RH WIND       PRES   REMARKS
BEMIDJI        CLOUDY    32  32 100 CALM      29.76R FOG
HALLOCK        FOG       34  32  93 CALM      29.73F VSB 1
ROSEAU         FOG       30  27  86 SW7       29.75R VSB 3/4 WCI  23
WARROAD        CLOUDY    32  28  86 W8        29.74R FOG     WCI  25
THIEF RVR FALL FOG       30  29  96 SW5       29.75S VSB 1/4 WCI  25
CROOKSTON      CLOUDY    32  30  93 SE3       29.75F FOG
FOSSTON        CLEAR     28  28 100 S7        29.76S FOG     WCI  21
DETROIT LAKES  CLEAR     32  32 100 S6        29.80R FOG     WCI  26
MOORHEAD       CLOUDY    32  30  93 S7        29.79F FOG     WCI  26
PARK RAPIDS    FOG       33  31  92 SW3       29.78S VSB 1/2
MAHNOMEN       FAIR      32  31  97 S8        29.76S FOG     WCI  25
$$
MNZ006-009>011-018-025>026-211100-
   North Central Minnesota

CITY           SKY/WX    TMP DP  RH WIND       PRES   REMARKS
BAUDETTE       CLOUDY    32  31  96 NW5       29.73R FOG     WCI  27
FLAG ISLAND    MOCLDY    30  30 100 SW8       29.71R WCI  23
INTL FALLS     CLOUDY    33  30  88 W9        29.72R WCI  25
WASKISH        FOG       32  32 100 SW8       29.75R VSB 1   WCI  25
BIG FORK       CLOUDY    34  32  93 SW7       29.75R WCI  28
LONGVILLE      CLOUDY    34  34 100 SW6       29.79R FOG     WCI  29
GRAND RAPIDS   CLOUDY    33  32  96 VRB3      29.79R
CRANE LAKE     CLOUDY    34  32  93 W3        29.74R
ORR            CLOUDY    34  30  86 W6        29.71R WCI  29
COOK           CLOUDY    34  30  86 W8        29.74R WCI  27
WALKER         FAIR      32  31  97 SW9       29.78R FOG     WCI  24
$$
MNZ012-019>021-037-211100-
   Northeast Minnesota

CITY           SKY/WX    TMP DP  RH WIND       PRES   REMARKS
DULUTH         CLOUDY    35  33  92 W10G23    29.76R WCI  27
ELY            CLOUDY    34  32  93 W10       29.72R WCI  26
HIBBING        CLOUDY    32  32 100 VRB6      29.76R WCI  26
EVELETH        CLOUDY    35  32  90 W6        29.76R WCI  30
DULUTH HARBOR  CLOUDY    37  36  93 SW7       29.80R
TWO HARBORS    CLOUDY    37  34  87 W7        29.74R
SILVER BAY     MOCLDY    37  34  87 W7        29.71R
GRAND MARAIS     N/A     39  34  82 W10G23    29.66R
G MARAIS ARPRT CLOUDY    34  30  86 W14G25    29.63R WCI  24
$$
MNZ029>031-032-039>041-046>048-054>057-064-211100-
   West Central Minnesota

CITY           SKY/WX    TMP DP  RH WIND       PRES   REMARKS
FERGUS FALLS   CLEAR     30  30 100 S6        29.85S WCI  24
WHEATON        CLEAR     36  30  80 CALM      29.83R
MORRIS         CLEAR     32  30  93 S7        29.82R FOG     WCI  26
ALEXANDRIA     CLEAR     31  30  96 SW6       29.82S FOG     WCI  25
ELBOW LAKE     FAIR      30  30 100 SE6       29.82S FOG     WCI  24
WADENA           N/A     28  28 100 CALM      29.80R FOG
GLENWOOD       CLEAR     30  30 100 SW6       29.83R FOG     WCI  24
APPLETON       CLEAR     36  32  87 CALM      29.83S
BENSON         FOG       30  27  86 CALM      29.85S VSB 1/4
ORTONVILLE     CLEAR     34  30  86 CALM      29.82F
WILLMAR        FAIR      32  32 100 CALM      29.86R FOG
$$
MNZ033>034-036-042>043-049>051-058-059-211100-
   Central Minnesota

CITY           SKY/WX    TMP DP  RH WIND       PRES   REMARKS
ST CLOUD       CLEAR     32  32 100 S3        29.84S FOG
SAUK CENTRE    FAIR      30  30  99 CALM      29.83R FOG
PAYNESVILLE      N/A     30  30 100 CALM      29.84S FOG
AITKIN         CLOUDY    36  30  80 SW3       29.80R FOG
PINE RIVER     FOG       34  34 100 CALM      29.84R VSB 1/2
BRAINERD       FOG       33  33 100 SW6       29.82R VSB 1/2 WCI  28
STAPLES        FOG       30  30 100 S3        29.81R VSB 1/4
LONG PRAIRIE   FOG       30  30 100 S3        29.83R VSB 1/4
LITTLE FALLS   FOG       32  32 100 CALM      29.83S VSB 1/4
LITCHFIELD     FOG       32  32 100 CALM      29.85S VSB 1/4
BUFFALO        PTCLDY    33  32  97 CALM      29.87R FOG
MAPLE LAKE     PTCLDY    33  33  99 SE3       29.86S FOG
HUTCHINSON     FOG       33  33 100 CALM      29.87R VSB 1/4
$$
MNZ037-044-045-052-053-211100-
   East Central Minnesota

CITY           SKY/WX    TMP DP  RH WIND       PRES   REMARKS
PRINCETON      CLEAR     34  32  93 S3        29.85S FOG
MORA           CLEAR     32  32 100 CALM      29.85S FOG
CAMBRIDGE      CLEAR     36  34  93 S3        29.84R FOG
RUSH CITY      CLEAR     32  32 100 CALM      29.85R FOG
MOOSE LAKE     CLOUDY    34  32  93 SW3       29.81R
HINCKLEY       FAIR      34  32  93 SW3       29.84R
CLOQUET        CLOUDY    34  32  93 W7        29.79R WCI  28
MCGREGOR       CLOUDY    34  32  93 W5        29.81R WCI  30
$$
MNZ071>073-080-081-089-090-097-098-211100-
   Southwest Minnesota

CITY           SKY/WX    TMP DP  RH WIND       PRES   REMARKS
MONTEVIDEO     CLEAR     36  36 100 W6        29.86R
GRANITE FALLS  CLEAR     33  32  95 S7        29.87R WCI  27
CANBY          CLEAR     41  32  72 CALM      29.84F
MARSHALL       CLEAR     38  30  73 SW8       29.85S
REDWOOD FALLS  CLEAR     34  31  88 S5        29.86S WCI  30
OLIVIA         CLEAR     32  32 100 S3        29.85R FOG
PIPESTONE      CLEAR     36  32  87 S5        29.86S
WINDOM         CLEAR     34  34 100 S5        29.87S FOG     WCI  30
WORTHINGTON    CLEAR     35  35 100 SW9       29.88F WCI  28
JACKSON        CLEAR     34  34 100 S8        29.89F FOG     WCI  27
TRACY          CLEAR     38  34  84 SW9       29.87R
SLAYTON        PTCLDY    34  32  94 SW7       29.87F WCI  27
$$
MNZ065>067-074>077-082>085-091>093-211100-
   South Central Minnesota

CITY           SKY/WX    TMP DP  RH WIND       PRES   REMARKS
MANKATO          N/A     37  35  92 S5        29.88F
NEW ULM        CLEAR     32  30  93 S5        29.88R FOG     WCI  27
ST JAMES       PTCLDY    34  34 100 S9        29.89S WCI  26
FAIRMONT       CLEAR     32  31  96 S5        29.90F FOG     WCI  27
GLENCOE          N/A     33  33 100 S3        29.86S FOG
FARIBAULT      FOG       36  34  93 CALM      29.89S VSB<1/4
OWATONNA       MOCLDY    36  34  93 SW5       29.89F FOG
WASECA         FOG       32  32 100 S5        29.90F VSB 1/2 WCI  27
ALBERT LEA     CLEAR     37  37 100 CALM      29.90F FOG
$$
MNZ078>079-086>088-094>096-211100-
   Southeast Minnesota

CITY           SKY/WX    TMP DP  RH WIND       PRES   REMARKS
ROCHESTER      CLEAR     35  35 100 W7        29.90S FOG     WCI  29
RED WING       CLOUDY    39  36  87 W6        29.89S
STANTON        CLEAR     35  33  93 S3        29.88F FOG
DODGE CENTER   FOG       34  34 100 W3        29.89F VSB<1/4
WINONA         CLOUDY    41  37  87 W3        29.91S
AUSTIN           N/A     37  36  93 CALM      29.90S FOG
PRESTON        CLEAR     36  34  92 NW7       29.91R
$$
ABBREVIATIONS USED IN REMARKS
   TC - TEMPERATURES IN CELSIUS
  WCI - WIND CHILL INDEX
   HX - HEAT INDEX
  VSB - VISIBILITY
$$




USA.gov is the U.S. government's official web portal to all federal, state and local government web resources and services.